Weather History for KHSP - January, 2004

Change the Weather History Date:

Monday, January 5, 2004

  Actual Average Record
Temperature  
Mean Temperature 42 °F -  
Max Temperature 55 °F 34 °F 59 °F (2007)
Min Temperature 30 °F 21 °F 1 °F (1999)
Degree Days  
Heating Degree Days 22    
Moisture  
Dew Point 45 °F    
Average Humidity 93    
Maximum Humidity 100    
Minimum Humidity 77    
Precipitation  
Precipitation 0.00 in - - ()
Sea Level Pressure  
Sea Level Pressure 29.84 in    
Wind  
Wind Speed 20 mph (West)    
Max Wind Speed 28 mph    
Max Gust Speed 39 mph    
Visibility 7 miles    
Events      
Averages and records for this station are not official NWS values.
T = Trace of Precipitation, MM = Missing Value Source: NWS Daily Summary

Daily Weather History Graph

Daily Weather History Graph

Search for Another Location

Airport or City:

Trip Planner

Search our weather history database for the weather conditions in past years. The results will help you decide how hot, cold, wet, or windy it might be!

Date:

Astronomy

Jan. 05, 2004 Rise Set
Actual Time 7:35 AM EST 5:13 PM EST
Civil Twilight 7:06 AM EST 5:42 PM EST
Nautical Twilight 6:33 AM EST 6:15 PM EST
Astronomical Twilight 6:01 AM EST 6:47 PM EST
Moon 3:27 PM EST (1/5) 6:06 AM EST (1/5)
Length of Visible Light 10h 36m
Length of Day
9h 38m
Waxing Gibbous, 97% of the Moon is Illuminated
Jan 5
Waxing Gibbous
Jan 7
Full
Jan 14
Last Quarter
Jan 21
New
Jan 29
First Quarter

Hourly Weather History & Observations

Time (EST) Temp. Windchill Dew Point Humidity Pressure Visibility Wind Dir Wind Speed Gust Speed Precip Events Conditions
12:00 AM 55.4 °F - 48.2 °F 77% 29.86 in 10.0 mi SW 18.4 mph 26.5 mph N/A   Clear
12:20 AM 55.4 °F - 50.0 °F 82% 29.86 in 10.0 mi WSW 19.6 mph 26.5 mph N/A   Clear
12:40 AM 55.4 °F - 50.0 °F 82% 29.86 in 10.0 mi WSW 20.7 mph 27.6 mph N/A   Mostly Cloudy
1:00 AM 55.4 °F - 50.0 °F 82% 29.85 in 10.0 mi WSW 20.7 mph 26.5 mph N/A   Overcast
1:20 AM 55.4 °F - 50.0 °F 82% 29.85 in 10.0 mi WSW 20.7 mph 26.5 mph N/A   Overcast
1:40 AM 55.4 °F - 50.0 °F 82% 29.85 in 10.0 mi WSW 18.4 mph 25.3 mph N/A   Overcast
2:00 AM 55.4 °F - 50.0 °F 82% 29.86 in 10.0 mi WSW 20.7 mph 26.5 mph N/A   Overcast
2:20 AM 55.4 °F - 50.0 °F 82% 29.85 in 10.0 mi WSW 19.6 mph 25.3 mph N/A   Overcast
2:40 AM 55.4 °F - 50.0 °F 82% 29.85 in 10.0 mi WSW 17.3 mph 26.5 mph N/A   Overcast
3:00 AM 55.4 °F - 50.0 °F 82% 29.84 in 10.0 mi WSW 21.9 mph 28.8 mph N/A   Overcast
3:20 AM 55.4 °F - 50.0 °F 82% 29.84 in 10.0 mi WSW 19.6 mph 29.9 mph N/A   Overcast
3:40 AM 55.4 °F - 50.0 °F 82% 29.84 in 10.0 mi WSW 20.7 mph 28.8 mph N/A   Overcast
4:00 AM 55.4 °F - 50.0 °F 82% 29.84 in 10.0 mi WSW 18.4 mph 27.6 mph N/A   Overcast
4:20 AM 55.4 °F - 50.0 °F 82% 29.84 in 10.0 mi WSW 20.7 mph 25.3 mph N/A   Overcast
4:40 AM 55.4 °F - 50.0 °F 82% 29.83 in 10.0 mi WSW 20.7 mph 29.9 mph N/A   Overcast
5:00 AM 55.4 °F - 50.0 °F 82% 29.83 in 10.0 mi WSW 21.9 mph 29.9 mph N/A   Overcast
5:20 AM 55.4 °F - 50.0 °F 82% 29.82 in 10.0 mi WSW 19.6 mph 27.6 mph N/A   Overcast
5:40 AM 55.4 °F - 51.8 °F 88% 29.82 in 10.0 mi WSW 21.9 mph 29.9 mph N/A   Overcast
6:00 AM 55.4 °F - 51.8 °F 88% 29.82 in 10.0 mi WSW 19.6 mph 31.1 mph N/A   Overcast
6:20 AM 55.4 °F - 51.8 °F 88% 29.83 in 10.0 mi WSW 19.6 mph 24.2 mph N/A   Overcast
6:40 AM 55.4 °F - 51.8 °F 88% 29.83 in 10.0 mi WSW 18.4 mph 27.6 mph N/A   Overcast
7:00 AM 53.6 °F - 51.8 °F 94% 29.83 in 7.0 mi West 17.3 mph 25.3 mph N/A   Overcast
7:20 AM 53.6 °F - 51.8 °F 94% 29.82 in 5.0 mi West 10.4 mph - N/A   Overcast
7:40 AM 53.6 °F - 51.8 °F 94% 29.82 in 7.0 mi West 10.4 mph - N/A   Overcast
8:00 AM 51.8 °F - 51.8 °F 100% 29.84 in 0.2 mi West 13.8 mph 19.6 mph N/A   Overcast
8:20 AM 50.0 °F - 50.0 °F 100% 29.85 in 0.2 mi WNW 10.4 mph 17.3 mph N/A   Overcast
8:40 AM 48.2 °F - 48.2 °F 100% 29.86 in 0.2 mi WNW 20.7 mph 28.8 mph N/A   Overcast
9:00 AM 48.2 °F - 48.2 °F 100% 29.86 in 0.2 mi WNW 17.3 mph 24.2 mph N/A   Overcast
9:20 AM 48.2 °F - 48.2 °F 100% 29.89 in 0.2 mi WNW 15.0 mph - N/A   Overcast
9:40 AM 48.2 °F - 48.2 °F 100% 29.88 in 0.2 mi West 17.3 mph 23.0 mph N/A   Overcast
10:00 AM 46.4 °F 39.8 °F 46.4 °F 100% 29.89 in 1.2 mi West 16.1 mph 21.9 mph N/A   Overcast
10:20 AM 46.4 °F 38.1 °F 46.4 °F 100% 29.89 in 0.5 mi West 24.2 mph 31.1 mph N/A   Overcast
10:40 AM 46.4 °F 38.1 °F 46.4 °F 100% 29.88 in 7.0 mi West 24.2 mph 31.1 mph N/A   Overcast
11:00 AM 46.4 °F 37.7 °F 46.4 °F 100% 29.88 in 7.0 mi West 26.5 mph 29.9 mph N/A   Overcast
11:20 AM 46.4 °F 38.1 °F 46.4 °F 100% 29.86 in 7.0 mi West 24.2 mph - N/A   Overcast
11:40 AM 44.6 °F 35.7 °F 44.6 °F 100% 29.85 in 1.8 mi West 24.2 mph 32.2 mph N/A   Overcast
12:00 PM 44.6 °F 35.9 °F 44.6 °F 100% 29.84 in 0.2 mi West 23.0 mph 33.4 mph N/A   Overcast
12:20 PM 44.6 °F 36.1 °F 44.6 °F 100% 29.84 in 0.2 mi West 21.9 mph 29.9 mph N/A   Overcast
12:40 PM 44.6 °F 35.5 °F 44.6 °F 100% 29.82 in 0.2 mi West 25.3 mph 31.1 mph N/A   Overcast
1:00 PM 44.6 °F 35.9 °F 44.6 °F 100% 29.82 in 0.2 mi West 23.0 mph 33.4 mph N/A   Overcast
1:20 PM 42.8 °F 33.3 °F 42.8 °F 100% 29.81 in 0.2 mi West 24.2 mph 33.4 mph N/A   Overcast
1:40 PM 42.8 °F 33.3 °F 42.8 °F 100% 29.81 in 0.5 mi West 24.2 mph 36.8 mph N/A   Overcast
2:00 PM 42.8 °F 34.0 °F 42.8 °F 100% 29.81 in 0.2 mi West 20.7 mph 26.5 mph N/A   Overcast
2:20 PM 41.0 °F 31.4 °F 41.0 °F 100% 29.80 in 10.0 mi West 21.9 mph 32.2 mph N/A   Overcast
2:40 PM 41.0 °F 30.9 °F 41.0 °F 100% 29.80 in 0.8 mi West 24.2 mph 28.8 mph N/A   Overcast
3:00 PM 41.0 °F 30.7 °F 41.0 °F 100% 29.81 in 10.0 mi West 25.3 mph 32.2 mph N/A   Overcast
3:20 PM 41.0 °F 30.9 °F 41.0 °F 100% 29.82 in 10.0 mi West 24.2 mph 33.4 mph N/A   Overcast
3:40 PM 41.0 °F 30.7 °F 41.0 °F 100% 29.81 in 0.5 mi West 25.3 mph 32.2 mph N/A   Overcast
4:00 PM 39.2 °F 29.3 °F 39.2 °F 100% 29.82 in 10.0 mi West 20.7 mph 34.5 mph N/A   Overcast
4:20 PM 39.2 °F 28.0 °F 39.2 °F 100% 29.83 in 7.0 mi West 26.5 mph 33.4 mph N/A   Overcast
4:40 PM 37.4 °F 25.6 °F 37.4 °F 100% 29.83 in 10.0 mi West 26.5 mph 39.1 mph N/A   Overcast
5:00 PM 35.6 °F 23.2 °F 35.6 °F 100% 29.85 in 10.0 mi West 26.5 mph 34.5 mph N/A   Overcast
5:20 PM 35.6 °F 23.4 °F 35.6 °F 100% 29.86 in 10.0 mi West 25.3 mph 31.1 mph N/A   Overcast
5:40 PM 33.8 °F 21.3 °F 33.8 °F 100% 29.87 in 10.0 mi West 24.2 mph 35.7 mph N/A   Overcast
6:00 PM 33.8 °F 20.8 °F 30.2 °F 87% 29.87 in 10.0 mi WNW 26.5 mph 38.0 mph N/A   Overcast
6:20 PM 32.0 °F 18.1 °F 30.2 °F 93% 29.87 in 10.0 mi West 27.6 mph 34.5 mph N/A   Overcast
6:40 PM 32.0 °F 18.6 °F 28.4 °F 87% 29.88 in 10.0 mi West 25.3 mph 33.4 mph N/A   Mostly Cloudy
7:00 PM 30.2 °F 16.8 °F 28.4 °F 93% 29.88 in 10.0 mi West 23.0 mph 31.1 mph N/A   Mostly Cloudy
7:20 PM 30.2 °F 16.5 °F 26.6 °F 86% 29.89 in 10.0 mi West 24.2 mph 33.4 mph N/A   Overcast
7:40 PM 28.4 °F 14.7 °F 26.6 °F 93% 29.90 in 10.0 mi West 21.9 mph 28.8 mph N/A   Overcast
8:00 PM 28.4 °F 14.4 °F 26.6 °F 93% 29.90 in 10.0 mi West 23.0 mph 35.7 mph N/A   Overcast
8:20 PM 28.4 °F 14.1 °F 26.6 °F 93% 29.90 in 10.0 mi West 24.2 mph 34.5 mph N/A   Overcast
8:40 PM 28.4 °F 16.2 °F 26.6 °F 93% 29.91 in 10.0 mi West 17.3 mph 31.1 mph N/A   Overcast
9:00 PM 28.4 °F 14.7 °F 26.6 °F 93% 29.90 in 10.0 mi WNW 21.9 mph 31.1 mph N/A   Overcast
9:20 PM 26.6 °F 12.0 °F 24.8 °F 93% 29.90 in 10.0 mi West 23.0 mph 35.7 mph N/A   Overcast
9:40 PM 26.6 °F 12.4 °F 24.8 °F 93% 29.90 in 10.0 mi West 21.9 mph 33.4 mph N/A   Overcast
10:00 PM 26.6 °F 11.7 °F 24.8 °F 93% 29.92 in 10.0 mi West 24.2 mph 31.1 mph N/A   Overcast
10:20 PM 26.6 °F 12.4 °F 24.8 °F 93% 29.92 in 10.0 mi WNW 21.9 mph 35.7 mph N/A   Overcast
10:40 PM 26.6 °F 11.4 °F 23.0 °F 86% 29.93 in 10.0 mi WNW 25.3 mph 34.5 mph N/A   Overcast
11:00 PM 24.8 °F 9.6 °F 21.2 °F 86% 29.94 in 10.0 mi West 23.0 mph 34.5 mph N/A   Overcast
11:20 PM 24.8 °F 9.3 °F 21.2 °F 86% 29.94 in 10.0 mi WNW 24.2 mph 38.0 mph N/A   Overcast
11:40 PM 24.8 °F 10.3 °F 21.2 °F 86% 29.95 in 10.0 mi West 20.7 mph 27.6 mph N/A   Overcast